SCP
0 0 0 0 0 0 0 0 0 0 0 0 0 0 0 0 0 0 0 0 0 0 0 0 0 0 0 0 0 0 0 0 0 0 0 0 0 0 0 0 0 0 0
0 0 0 0 0 0 0 0 0 0 0 0 0 0 0 0 0 0 0 0 0 0 0 0 0 0 0 0 0 0 0 0 0 0 0 0 0 0 0 0 0 0 0
0 0 0 0 0 0 0 0 0 0 0 0 0 0 0 0 0 0 0 0 0 0 0 0 0 0 0 0 0 -0 0 0 0 0 0 0 0 0 0 0 0 0 0
0 0 0 0 0 0 0 0 0 0 0 0 0 0 0 0 0 0 0 0 0 0 0 0 0 0 0 0 -0 0 0 0 0 0 0 0 0 0 0 0 0 0 0
-0 0 0 0 0 0 0 0 0 0 0 0 0 0 0 0 0 0 0 0 0 0 0 0 0 -0 0 -0 0 0 0 0 0 0 0 0 0 0 0 0 0 0 0
0 0 0 0 0 0 0 0 0 0 0 0 0 0 0 0 0 0 0 0 0 0 0 0 0 0 -0 0 0 0 0 0 0 0 0 0 0 0 0 0 0 0 0
0 0 0 0 0 0 0 0 0 0 0 0 0 0 0 0 0 0 0 0 0 -0 0 0 0 -0 0 0 0 0 0 0 0 0 0 0 0 0 0 0 0 0 0
0 0 0 0 0 0 0 0 0 0 0 0 0 0 0 0 0 0 0 0 0 -0 0 -0 -0 0 0 0 0 0 0 0 0 0 0 0 0 0 0 0 0 0 0
0 0 0 0 0 0 0 0 0 0 0 0 0 0 0 0 0 0 0 0 -0 -0 -0 -0 -0 0 0 0 0 0 0 0 0 0 0 0 0 0 0 0 0 0 0
-0 0 0 0 0 0 0 0 0 0 0 0 0 0 0 0 0 0 0 -0 0 0 -0 -0 0 0 0 0 0 0 0 0 0 0 0 0 0 0 0 0 0 0 0
-0 -0 -0 0 0 0 0 0 0 0 0 0 0 0 0 0 0 0 0 0 0 0 -0 -0 0 0 0 0 0 0 0 0 0 0 0 0 0 0 0 0 0 0 0
-0 -0 -0 -0 0 -0 0 0 0 0 0 0 0 0 0 0 0 0 -0 0 -0 -0 -0 -0 0 0 0 0 0 0 0 0 0 0 0 0 0 0 0 0 0 0 0
-0 -0 -0 -0 0 -0 0 0 0 0 0 0 0 0 0 0 -0 -0 -0 -0 -0 -0 -0 -0 -0 0 0 0 0 0 0 0 0 0 0 0 0 0 0 0 0 0 0
-0 -0 -0 -0 0 -0 -0 0 0 0 0 0 0 0 0 0 0 0 0 0 -0 -0 -0 -0 0 0 0 0 0 0 0 0 0 0 0 0 0 0 -0 0 -0 0 0
-0 -0 -0 -0 0 -0 -0 -0 0 0 0 0 0 0 0 0 0 -0 -0 0 0 -0 -0 -0 -0 0 0 0 0 0 0 0 0 0 0 0 0 -0 0 0 0 0 0
-0 -0 -0 -0 -0 -0 -0 -0 0 0 -0 0 0 0 0 0 0 0 -0 0 -0 0 0 -0 0 -0 0 0 0 0 0 0 0 0 0 0 -0 -0 -0 -0 -0 0 0
-0 -0 -0 -0 -0 -0 -0 -0 -0 0 -0 -0 0 0 0 0 0 0 -0 -0 -0 0 0 0 0 0 0 0 0 0 0 0 0 0 0 0 0 -0 -0 0 0 0 0
-0 -0 -0 -0 -0 -0 -0 -0 -0 -0 -0 -0 0 0 0 0 0 0 0 0 0 -0 -0 0 0 0 0 -0 0 0 0 0 0 0 0 0 0 0 0 0 0 0 0
-0 -0 -0 -0 -0 -0 -0 -0 -0 -0 -0 -0 -0 0 0 0 0 0 0 0 0 0 -0 0 0 0 0 0 -0 0 0 0 0 0 0 0 0 -0 0 0 0 0 0
-0 -0 -0 -0 -0 -0 -0 -0 -0 -0 -0 -0 -0 0 0 0 0 0 0 0 0 0 0 -0 0 0 0 0 0 0 0 0 0 0 0 0 0 0 0 0 0 0 0
-0 -0 -0 -0 -0 -0 -0 -0 -0 -0 -0 -0 -0 -0 0 0 0 0 0 0 0 0 0 -0 0 0 0 0 0 -0 0 0 0 -0 -0 0 0 0 0 0 0 0 0
-0 -0 -0 -0 -0 -0 -0 -0 -0 -0 -0 -0 -0 -0 -0 -0 0 -0 0 0 0 0 0 0 0 0 0 0 0 0 -0 -0 -0 -0 -0 -0 0 0 0 0 -0 0 0
-0 -0 -0 -0 -0 -0 -0 -0 -0 -0 -0 -0 -0 -0 -0 -0 -0 0 0 0 0 0 0 0 0 0 0 0 0 0 -0 -0 -0 -0 -0 -0 -0 -0 -0 -0 0 0 0
0 0 -0 -0 -0 -0 -0 -0 -0 -0 -0 -0 -0 -0 -0 0 0 0 0 0 0 0 0 0 0 0 0 -0 -0 -0 -0 -0 -0 -0 -0 -0 -0 -0 0 0 0 0 -0
0 0 0 -0 -0 -0 -0 -0 -0 -0 -0 -0 -0 -0 0 -0 0 0 0 0 0 0 0 0 0 0 -0 -0 -0 -0 -0 -0 -0 0 -0 0 0 0 -0 -0 -0 -0 0
0 0 0 0 0 -0 0 -0 -0 -0 -0 -0 -0 -0 0 0 0 0 -0 0 -0 -0 -0 -0 -0 -0 -0 0 -0 0 0 -0 -0 0 -0 -0 -0 -0 -0 0 0 0 0
Wind_Speed_500mb
57 53 46 54 63 55 62 65 48 34 26 21 18 14 15 20 24 26 26 26 23 23 21 20 24 24 23 20 20 28 30 29 29 27 25 21 19 26 23 24 24 27 25
49 39 36 51 55 62 72 55 38 29 24 19 14 11 15 19 20 18 19 19 20 22 19 18 20 21 20 20 23 36 34 31 29 27 28 19 16 23 19 23 24 26 25
36 38 39 40 53 71 62 44 33 27 22 16 9 8 12 15 18 13 9 12 16 17 14 16 21 18 18 16 26 39 33 33 32 26 19 11 8 21 17 20 21 21 25
30 29 32 44 64 65 49 36 30 25 21 13 4 7 9 16 19 15 11 13 14 9 5 14 17 16 15 17 30 34 29 31 30 33 29 15 14 16 14 15 15 16 18
27 32 40 55 66 56 42 34 29 23 19 10 2 5 10 17 19 18 14 12 12 6 8 12 11 14 15 21 28 29 27 27 27 34 38 23 9 14 12 19 20 10 16
31 35 47 65 60 47 39 33 25 21 17 11 2 5 12 14 19 20 16 11 6 8 12 12 15 14 19 20 25 25 22 21 22 33 33 23 18 17 19 32 26 18 22
42 50 71 71 60 49 40 31 21 19 16 11 3 6 8 14 19 21 15 8 0 9 17 14 13 14 17 20 22 20 19 19 23 27 36 18 13 18 22 36 32 27 24
46 61 75 69 56 48 38 26 20 17 16 9 2 3 7 14 16 17 14 11 5 12 21 16 15 14 18 21 21 21 22 22 21 20 17 13 15 16 21 30 25 12 13
55 66 72 62 54 44 35 24 22 19 16 10 2 3 6 13 15 13 13 5 7 12 22 20 17 17 21 19 25 22 21 23 22 19 15 16 14 16 21 16 18 34 16
55 66 70 61 50 37 33 25 21 17 14 9 6 3 6 11 14 14 9 10 5 10 21 23 21 19 20 21 23 22 18 18 19 17 16 17 15 20 23 28 16 21 44
59 69 70 57 45 38 34 27 25 19 14 10 6 2 5 8 12 14 8 6 7 12 17 23 24 18 18 19 18 16 16 20 19 21 17 13 12 18 31 24 27 28 43
57 69 68 58 49 44 37 28 26 23 16 8 6 5 4 6 11 10 11 11 11 14 16 23 23 17 16 16 15 14 17 16 22 21 19 17 20 22 22 23 27 28 37
59 67 66 60 52 46 40 32 30 25 19 9 8 8 4 6 9 13 16 15 18 18 18 18 21 19 17 17 16 16 17 18 17 18 19 22 27 23 20 24 25 23 29
61 65 68 62 53 48 43 35 31 28 21 12 10 10 6 8 11 17 17 15 17 19 21 24 24 22 19 18 18 16 16 16 16 15 16 21 26 29 23 27 28 28 37
60 68 71 65 57 53 48 38 31 31 26 16 13 12 15 13 15 18 20 16 18 20 22 22 24 22 23 23 31 26 19 16 21 23 23 26 24 21 27 27 35 36 43
63 69 70 67 61 55 52 44 35 35 31 21 16 19 21 17 15 20 20 17 18 19 21 18 20 23 22 18 18 12 17 17 22 27 25 27 31 43 35 42 45 34 47
68 74 75 70 63 56 54 49 39 37 35 27 21 24 22 20 16 18 21 20 16 15 16 13 13 15 24 21 19 12 15 18 26 30 33 35 39 36 46 48 49 44 43
69 71 72 70 63 55 55 48 43 40 39 35 26 27 26 24 20 18 17 15 17 18 23 22 18 15 26 32 19 16 17 17 26 32 34 41 44 45 48 52 43 33 32
72 69 67 67 63 59 56 54 49 41 41 41 33 27 31 27 26 19 14 14 20 22 29 27 26 27 36 31 25 35 32 38 38 37 41 52 55 51 39 34 27 35 45
67 68 65 66 62 62 59 60 57 49 45 44 37 29 33 30 28 22 18 20 23 25 25 25 23 22 30 33 36 39 51 51 50 54 53 50 44 38 32 39 43 43 43
69 65 67 67 62 63 64 64 60 57 42 42 40 33 33 34 28 26 22 24 26 26 27 26 25 25 27 32 32 35 44 48 46 52 51 42 32 30 35 38 32 30 34
66 68 69 69 65 64 66 66 65 50 47 44 46 39 33 38 34 30 28 25 27 28 30 29 29 30 31 31 31 32 34 43 45 49 45 34 29 30 34 36 34 28 24
73 74 73 73 66 67 69 66 61 56 53 50 50 44 37 40 37 38 34 31 31 31 32 31 30 31 33 32 31 30 29 33 42 42 31 26 31 33 35 35 31 26 22
74 80 79 77 75 73 71 66 58 57 58 55 54 48 44 41 42 41 37 35 34 35 35 35 32 31 31 30 31 31 31 31 36 36 35 32 30 30 32 35 33 28 23
73 81 87 82 79 77 72 71 67 61 62 60 58 53 50 43 45 42 41 38 31 33 37 37 35 36 34 31 28 27 30 33 33 35 36 37 37 37 37 37 35 31 29
76 81 84 79 77 76 75 73 71 66 62 65 65 59 58 54 47 44 43 39 35 30 29 29 29 30 27 28 27 26 26 26 30 36 41 43 43 44 43 42 39 38 37
Wind_Direction_500mb
292 284 267 250 239 223 205 197 199 207 213 219 232 255 294 303 302 292 279 278 282 296 292 252 229 234 238 245 239 203 197 198 197 199 192 198 212 211 215 214 213 214 208
282 266 240 237 225 205 192 188 189 205 207 211 230 274 315 322 322 306 282 273 287 297 270 235 231 226 236 235 219 191 189 186 187 190 175 183 198 213 215 207 217 210 204
268 238 226 212 199 186 180 182 190 198 198 205 231 298 330 341 341 326 295 293 307 291 266 230 213 224 233 224 200 185 190 190 184 181 173 146 175 185 198 212 216 214 215
264 228 207 190 182 175 174 182 191 189 191 195 235 315 346 358 356 343 307 301 303 294 246 197 211 227 207 196 184 184 187 191 199 184 187 185 198 170 174 198 196 221 227
247 205 187 175 170 172 173 182 183 187 191 192 272 354 9 359 360 352 331 308 297 251 213 203 198 179 168 166 170 180 190 188 204 204 182 198 193 199 182 172 191 204 232
182 177 170 166 165 172 177 179 181 188 188 186 4 333 346 350 355 353 342 326 278 201 177 171 160 166 166 167 164 170 183 189 201 185 187 198 216 225 199 173 171 191 220
169 166 166 167 170 176 177 174 183 189 182 178 350 350 346 351 353 355 353 343 326 179 175 165 155 163 170 169 178 181 184 185 189 198 206 217 233 244 204 186 156 114 171
177 169 170 169 175 177 173 172 183 179 177 168 329 352 16 2 358 358 15 34 86 163 172 157 152 146 164 169 176 174 180 185 195 206 189 212 220 208 197 162 155 129 209
178 174 172 173 179 176 172 173 169 163 162 169 160 70 35 11 7 19 14 33 78 147 170 161 161 143 150 149 161 165 171 174 186 192 216 219 197 187 192 205 129 151 163
178 175 175 177 178 175 169 170 167 149 156 172 162 82 31 22 16 23 30 58 123 143 166 172 166 152 154 154 161 168 174 182 191 201 204 201 190 196 198 174 158 188 164
179 177 179 178 177 172 176 174 173 172 175 181 166 106 28 29 17 24 57 92 102 142 158 174 173 162 166 168 172 173 179 176 185 187 187 189 185 163 158 179 185 191 191
179 180 179 178 178 177 181 182 181 188 188 185 173 165 54 45 23 37 87 87 93 131 153 171 175 167 165 175 179 179 169 166 173 166 169 169 167 171 175 174 174 172 175
180 182 180 183 181 182 186 186 188 187 190 178 158 168 106 78 39 98 102 94 103 114 126 150 168 169 161 154 152 161 163 163 165 176 181 179 190 185 175 174 178 175 171
183 182 184 186 187 188 191 190 187 185 187 167 161 164 139 122 76 116 107 94 109 119 123 127 132 140 140 139 141 154 160 165 151 160 153 164 168 171 173 173 168 147 151
187 188 187 189 191 192 195 192 186 185 190 176 169 158 144 131 104 114 130 97 108 120 122 123 132 137 134 123 130 123 113 126 140 134 140 145 154 160 155 166 168 161 155
192 193 192 192 194 194 198 193 189 185 193 185 173 156 150 137 121 108 124 127 126 126 118 133 139 134 142 143 155 132 115 116 135 138 141 150 158 154 129 132 143 145 148
196 196 196 194 195 194 198 194 191 186 196 190 181 168 157 149 127 121 113 113 133 137 130 124 150 185 197 177 178 161 132 123 139 144 150 144 156 142 145 140 129 123 121
202 199 199 197 196 195 197 193 193 188 197 195 188 177 169 157 147 132 119 110 120 132 125 113 106 107 182 184 189 180 168 136 144 157 151 149 140 133 135 140 137 136 135
205 200 198 195 195 195 195 193 196 191 196 199 193 184 179 167 155 151 134 119 129 129 133 120 104 100 112 122 131 151 151 142 131 138 142 143 143 139 133 135 142 134 131
207 201 197 195 197 197 196 196 199 199 198 199 194 190 183 180 161 156 145 137 134 136 137 128 122 107 109 120 120 129 138 138 137 136 138 138 137 142 137 137 142 138 138
205 204 199 193 195 199 197 199 201 205 194 196 195 195 189 186 175 164 156 150 146 143 141 138 130 125 120 117 119 142 145 144 149 147 145 145 140 140 141 147 146 145 142
204 205 198 195 197 200 200 203 205 199 199 198 197 195 191 190 186 180 169 163 163 154 148 146 140 134 130 130 128 123 151 160 155 156 153 153 156 155 153 151 152 153 150
206 206 199 195 197 203 204 206 206 201 200 202 198 195 192 193 193 189 187 180 177 177 167 162 154 148 144 140 136 135 142 156 167 166 170 170 167 167 170 171 169 174 184
206 204 201 199 198 202 206 209 204 199 200 202 200 196 195 194 197 196 198 194 191 190 190 183 178 171 167 166 162 157 156 162 173 182 184 184 183 182 183 186 188 192 197
205 206 205 200 201 201 202 210 207 202 201 202 201 199 197 197 197 201 204 206 206 206 198 197 195 193 190 181 178 180 178 179 182 188 193 196 196 197 197 197 201 200 200
205 206 208 207 205 203 202 207 209 205 203 203 202 201 200 200 200 200 204 210 214 214 213 218 215 211 211 205 202 198 199 205 208 207 208 209 209 210 208 207 205 206 208
Wind_Speed_850mb
57 53 46 54 63 55 62 65 48 34 26 21 18 14 15 20 24 26 26 26 23 23 21 20 24 24 23 20 20 28 30 29 29 27 25 21 19 26 23 24 24 27 25
49 39 36 51 55 62 72 55 38 29 24 19 14 11 15 19 20 18 19 19 20 22 19 18 20 21 20 20 23 36 34 31 29 27 28 19 16 23 19 23 24 26 25
36 38 39 40 53 71 62 44 33 27 22 16 9 8 12 15 18 13 9 12 16 17 14 16 21 18 18 16 26 39 33 33 32 26 19 11 8 21 17 20 21 21 25
30 29 32 44 64 65 49 36 30 25 21 13 4 7 9 16 19 15 11 13 14 9 5 14 17 16 15 17 30 34 29 31 30 33 29 15 14 16 14 15 15 16 18
27 32 40 55 66 56 42 34 29 23 19 10 2 5 10 17 19 18 14 12 12 6 8 12 11 14 15 21 28 29 27 27 27 34 38 23 9 14 12 19 20 10 16
31 35 47 65 60 47 39 33 25 21 17 11 2 5 12 14 19 20 16 11 6 8 12 12 15 14 19 20 25 25 22 21 22 33 33 23 18 17 19 32 26 18 22
42 50 71 71 60 49 40 31 21 19 16 11 3 6 8 14 19 21 15 8 0 9 17 14 13 14 17 20 22 20 19 19 23 27 36 18 13 18 22 36 32 27 24
46 61 75 69 56 48 38 26 20 17 16 9 2 3 7 14 16 17 14 11 5 12 21 16 15 14 18 21 21 21 22 22 21 20 17 13 15 16 21 30 25 12 13
55 66 72 62 54 44 35 24 22 19 16 10 2 3 6 13 15 13 13 5 7 12 22 20 17 17 21 19 25 22 21 23 22 19 15 16 14 16 21 16 18 34 16
55 66 70 61 50 37 33 25 21 17 14 9 6 3 6 11 14 14 9 10 5 10 21 23 21 19 20 21 23 22 18 18 19 17 16 17 15 20 23 28 16 21 44
59 69 70 57 45 38 34 27 25 19 14 10 6 2 5 8 12 14 8 6 7 12 17 23 24 18 18 19 18 16 16 20 19 21 17 13 12 18 31 24 27 28 43
57 69 68 58 49 44 37 28 26 23 16 8 6 5 4 6 11 10 11 11 11 14 16 23 23 17 16 16 15 14 17 16 22 21 19 17 20 22 22 23 27 28 37
59 67 66 60 52 46 40 32 30 25 19 9 8 8 4 6 9 13 16 15 18 18 18 18 21 19 17 17 16 16 17 18 17 18 19 22 27 23 20 24 25 23 29
61 65 68 62 53 48 43 35 31 28 21 12 10 10 6 8 11 17 17 15 17 19 21 24 24 22 19 18 18 16 16 16 16 15 16 21 26 29 23 27 28 28 37
60 68 71 65 57 53 48 38 31 31 26 16 13 12 15 13 15 18 20 16 18 20 22 22 24 22 23 23 31 26 19 16 21 23 23 26 24 21 27 27 35 36 43
63 69 70 67 61 55 52 44 35 35 31 21 16 19 21 17 15 20 20 17 18 19 21 18 20 23 22 18 18 12 17 17 22 27 25 27 31 43 35 42 45 34 47
68 74 75 70 63 56 54 49 39 37 35 27 21 24 22 20 16 18 21 20 16 15 16 13 13 15 24 21 19 12 15 18 26 30 33 35 39 36 46 48 49 44 43
69 71 72 70 63 55 55 48 43 40 39 35 26 27 26 24 20 18 17 15 17 18 23 22 18 15 26 32 19 16 17 17 26 32 34 41 44 45 48 52 43 33 32
72 69 67 67 63 59 56 54 49 41 41 41 33 27 31 27 26 19 14 14 20 22 29 27 26 27 36 31 25 35 32 38 38 37 41 52 55 51 39 34 27 35 45
67 68 65 66 62 62 59 60 57 49 45 44 37 29 33 30 28 22 18 20 23 25 25 25 23 22 30 33 36 39 51 51 50 54 53 50 44 38 32 39 43 43 43
69 65 67 67 62 63 64 64 60 57 42 42 40 33 33 34 28 26 22 24 26 26 27 26 25 25 27 32 32 35 44 48 46 52 51 42 32 30 35 38 32 30 34
66 68 69 69 65 64 66 66 65 50 47 44 46 39 33 38 34 30 28 25 27 28 30 29 29 30 31 31 31 32 34 43 45 49 45 34 29 30 34 36 34 28 24
73 74 73 73 66 67 69 66 61 56 53 50 50 44 37 40 37 38 34 31 31 31 32 31 30 31 33 32 31 30 29 33 42 42 31 26 31 33 35 35 31 26 22
74 80 79 77 75 73 71 66 58 57 58 55 54 48 44 41 42 41 37 35 34 35 35 35 32 31 31 30 31 31 31 31 36 36 35 32 30 30 32 35 33 28 23
73 81 87 82 79 77 72 71 67 61 62 60 58 53 50 43 45 42 41 38 31 33 37 37 35 36 34 31 28 27 30 33 33 35 36 37 37 37 37 37 35 31 29
76 81 84 79 77 76 75 73 71 66 62 65 65 59 58 54 47 44 43 39 35 30 29 29 29 30 27 28 27 26 26 26 30 36 41 43 43 44 43 42 39 38 37
Wind_Direction_850mb
292 284 267 250 239 223 205 197 199 207 213 219 232 255 294 303 302 292 279 278 282 296 292 252 229 234 238 245 239 203 197 198 197 199 192 198 212 211 215 214 213 214 208
282 266 240 237 225 205 192 188 189 205 207 211 230 274 315 322 322 306 282 273 287 297 270 235 231 226 236 235 219 191 189 186 187 190 175 183 198 213 215 207 217 210 204
268 238 226 212 199 186 180 182 190 198 198 205 231 298 330 341 341 326 295 293 307 291 266 230 213 224 233 224 200 185 190 190 184 181 173 146 175 185 198 212 216 214 215
264 228 207 190 182 175 174 182 191 189 191 195 235 315 346 358 356 343 307 301 303 294 246 197 211 227 207 196 184 184 187 191 199 184 187 185 198 170 174 198 196 221 227
247 205 187 175 170 172 173 182 183 187 191 192 272 354 9 359 360 352 331 308 297 251 213 203 198 179 168 166 170 180 190 188 204 204 182 198 193 199 182 172 191 204 232
182 177 170 166 165 172 177 179 181 188 188 186 4 333 346 350 355 353 342 326 278 201 177 171 160 166 166 167 164 170 183 189 201 185 187 198 216 225 199 173 171 191 220
169 166 166 167 170 176 177 174 183 189 182 178 350 350 346 351 353 355 353 343 326 179 175 165 155 163 170 169 178 181 184 185 189 198 206 217 233 244 204 186 156 114 171
177 169 170 169 175 177 173 172 183 179 177 168 329 352 16 2 358 358 15 34 86 163 172 157 152 146 164 169 176 174 180 185 195 206 189 212 220 208 197 162 155 129 209
178 174 172 173 179 176 172 173 169 163 162 169 160 70 35 11 7 19 14 33 78 147 170 161 161 143 150 149 161 165 171 174 186 192 216 219 197 187 192 205 129 151 163
178 175 175 177 178 175 169 170 167 149 156 172 162 82 31 22 16 23 30 58 123 143 166 172 166 152 154 154 161 168 174 182 191 201 204 201 190 196 198 174 158 188 164
179 177 179 178 177 172 176 174 173 172 175 181 166 106 28 29 17 24 57 92 102 142 158 174 173 162 166 168 172 173 179 176 185 187 187 189 185 163 158 179 185 191 191
179 180 179 178 178 177 181 182 181 188 188 185 173 165 54 45 23 37 87 87 93 131 153 171 175 167 165 175 179 179 169 166 173 166 169 169 167 171 175 174 174 172 175
180 182 180 183 181 182 186 186 188 187 190 178 158 168 106 78 39 98 102 94 103 114 126 150 168 169 161 154 152 161 163 163 165 176 181 179 190 185 175 174 178 175 171
183 182 184 186 187 188 191 190 187 185 187 167 161 164 139 122 76 116 107 94 109 119 123 127 132 140 140 139 141 154 160 165 151 160 153 164 168 171 173 173 168 147 151
187 188 187 189 191 192 195 192 186 185 190 176 169 158 144 131 104 114 130 97 108 120 122 123 132 137 134 123 130 123 113 126 140 134 140 145 154 160 155 166 168 161 155
192 193 192 192 194 194 198 193 189 185 193 185 173 156 150 137 121 108 124 127 126 126 118 133 139 134 142 143 155 132 115 116 135 138 141 150 158 154 129 132 143 145 148
196 196 196 194 195 194 198 194 191 186 196 190 181 168 157 149 127 121 113 113 133 137 130 124 150 185 197 177 178 161 132 123 139 144 150 144 156 142 145 140 129 123 121
202 199 199 197 196 195 197 193 193 188 197 195 188 177 169 157 147 132 119 110 120 132 125 113 106 107 182 184 189 180 168 136 144 157 151 149 140 133 135 140 137 136 135
205 200 198 195 195 195 195 193 196 191 196 199 193 184 179 167 155 151 134 119 129 129 133 120 104 100 112 122 131 151 151 142 131 138 142 143 143 139 133 135 142 134 131
207 201 197 195 197 197 196 196 199 199 198 199 194 190 183 180 161 156 145 137 134 136 137 128 122 107 109 120 120 129 138 138 137 136 138 138 137 142 137 137 142 138 138
205 204 199 193 195 199 197 199 201 205 194 196 195 195 189 186 175 164 156 150 146 143 141 138 130 125 120 117 119 142 145 144 149 147 145 145 140 140 141 147 146 145 142
204 205 198 195 197 200 200 203 205 199 199 198 197 195 191 190 186 180 169 163 163 154 148 146 140 134 130 130 128 123 151 160 155 156 153 153 156 155 153 151 152 153 150
206 206 199 195 197 203 204 206 206 201 200 202 198 195 192 193 193 189 187 180 177 177 167 162 154 148 144 140 136 135 142 156 167 166 170 170 167 167 170 171 169 174 184
206 204 201 199 198 202 206 209 204 199 200 202 200 196 195 194 197 196 198 194 191 190 190 183 178 171 167 166 162 157 156 162 173 182 184 184 183 182 183 186 188 192 197
205 206 205 200 201 201 202 210 207 202 201 202 201 199 197 197 197 201 204 206 206 206 198 197 195 193 190 181 178 180 178 179 182 188 193 196 196 197 197 197 201 200 200
205 206 208 207 205 203 202 207 209 205 203 203 202 201 200 200 200 200 204 210 214 214 213 218 215 211 211 205 202 198 199 205 208 207 208 209 209 210 208 207 205 206 208